Stations météo

Publicité
Auch, France (7622): Température de l'air & dewpoint: 17.04.2017 23:00:00 - 23.04.2017 23:00:00 (CEST)Auch, France (7622): Température de l'air 5cm: 17.04.2017 23:00:00 - 23.04.2017 23:00:00 (CEST)Auch, France (7622): Température de l'air -20cm & Température de l'air -100cm: 17.04.2017 23:00:00 - 23.04.2017 23:00:00 (CEST)Auch, France (7622): Vitesse du vent & gusts: 17.04.2017 23:00:00 - 23.04.2017 23:00:00 (CEST)Auch, France (7622): Direction du vent: 17.04.2017 23:00:00 - 23.04.2017 23:00:00 (CEST)Auch, France (7622): reduced air pressure: 17.04.2017 23:00:00 - 23.04.2017 23:00:00 (CEST)Auch, France (7622): visibility: 17.04.2017 23:00:00 - 23.04.2017 23:00:00 (CEST)Auch, France (7622): Ensoleillement: 17.04.2017 23:00:00 - 23.04.2017 23:00:00 (CEST)Auch, France (7622): Quantités de précipitations: 17.04.2017 23:00:00 - 23.04.2017 23:00:00 (CEST)
Date & Time tt [°C] td [°C] tt 5cm [°C] tt -20cm [°C] tt -100cm [°C] ff [km/h] ff [knt] fx [km/h] fx [knt] dd ppp [hPa] vv [km] sd [min] rr [mm]
23.04.2017 23:00:00 10,4 6,3 5,5 15,9 13,5 2 1 3 2 SSW 1017,3 20 0 0,0
23.04.2017 22:00:00 12,6 6,8 7,0 15,9 13,5 3 2 5 3 SSW 1016,9 20 0 0,0
23.04.2017 21:00:00 17,1 8,2 11,0 15,7 13,5 0 0 12 7 N 1016,3 20 28 0,0
23.04.2017 20:00:00 21,6 6,3 23,5 15,5 13,5 9 5 15 8 N 1015,8 20 60 0,0
23.04.2017 19:00:00 23,5 4,4 27,7 15,3 13,5 10 5 20 11 N 1015,7 20 60 0,0
23.04.2017 18:00:00 24,0 4,4 29,2 15,0 13,5 15 8 25 14 N 1015,7 20 60 0,0
23.04.2017 17:00:00 24,4 1,9 30,2 14,6 13,5 11 6 25 14 N 1016,0 20 60 0,0
23.04.2017 16:00:00 24,3 3,6 30,2 14,3 13,5 10 5 27 15 N 1016,5 20 60 0,0
23.04.2017 15:00:00 23,5 4,4 29,9 13,9 13,5 13 7 24 13 NNW 1017,1 20 60 0,0
23.04.2017 14:00:00 23,0 6,3 28,4 13,6 13,5 7 4 22 12 N 1017,6 20 60 0,0
23.04.2017 13:00:00 21,7 7,5 27,4 13,5 13,4 10 5 22 12 N 1018,3 20 60 0,0
23.04.2017 12:00:00 19,6 7,0 24,0 13,4 13,5 6 3 14 8 NE 1018,9 20 60 0,0
23.04.2017 11:00:00 16,9 5,8 18,1 13,5 13,5 6 3 11 6 NE 1019,3 20 60 0,0
23.04.2017 10:00:00 14,1 5,2 10,6 13,6 13,5 2 1 9 5 N 1019,5 19 60 0,0
23.04.2017 09:00:00 8,3 4,1 7,0 13,7 13,5 5 3 10 6 S 1020,0 20 58 0,0
23.04.2017 08:00:00 3,9 2,9 -0,2 13,9 13,5 5 3 7 4 SSW 1020,2 20 15 0,0
23.04.2017 07:00:00 3,1 2,1 -0,3 14,1 13,5 0 0 5 3 N 1019,8 20 0 0,0
23.04.2017 06:00:00 3,7 1,9 0,2 14,3 13,5 0 0 9 5 N 1019,7 20 0 0,0
23.04.2017 05:00:00 4,2 2,5 0,7 14,5 13,5 0 0 3 2 N 1019,7 20 0 0,0
23.04.2017 04:00:00 4,6 2,8 0,9 14,6 13,5 0 0 5 3 N 1019,9 20 0 0,0
23.04.2017 03:00:00 5,0 2,7 1,3 14,8 13,5 0 0 3 2 N 1020,0 20 0 0,0
23.04.2017 02:00:00 5,9 2,9 1,8 15,0 13,5 0 0 5 3 N 1020,3 20 0 0,0
23.04.2017 01:00:00 6,5 4,0 2,2 15,1 13,5 2 1 3 2 S 1020,2 20 0 0,0
23.04.2017 00:00:00 6,9 3,3 2,6 15,1 13,5 3 1 4 2 SSW 1020,3 20 0 0,0
22.04.2017 23:00:00 8,6 3,8 3,7 15,2 13,5 3 2 4 2 S 1020,2 20 0 0,0
22.04.2017 22:00:00 10,8 4,0 5,0 15,2 13,5 0 0 2 1 N 1019,9 20 0 0,0
22.04.2017 21:00:00 15,7 6,1 9,2 15,0 13,5 0 0 8 4 N 1019,3 20 27 0,0
22.04.2017 20:00:00 21,8 -0,3 23,3 14,8 13,5 7 4 18 10 NNE 1018,8 20 60 0,0
22.04.2017 19:00:00 23,2 -0,4 27,2 14,5 13,5 10 5 18 10 NNE 1018,9 20 60 0,0
22.04.2017 18:00:00 23,9 -2,7 29,2 14,2 13,5 7 4 26 14 ENE 1019,2 19 60 0,0
22.04.2017 17:00:00 23,6 -0,7 29,7 13,8 13,5 12 6 25 14 NNE 1019,6 20 60 0,0
22.04.2017 16:00:00 23,3 -0,3 29,2 13,5 13,5 11 6 24 13 NE 1020,5 20 60 0,0
22.04.2017 15:00:00 22,8 1,7 27,5 13,2 13,5 11 6 23 12 ENE 1021,5 20 60 0,0
22.04.2017 14:00:00 21,4 2,6 26,0 12,9 13,5 15 8 25 14 ESE 1022,3 20 60 0,0
22.04.2017 13:00:00 19,8 3,0 24,2 12,8 13,5 11 6 24 13 E 1023,3 20 60 0,0
22.04.2017 12:00:00 18,4 3,4 21,4 12,8 13,5 11 6 22 12 ESE 1024,1 20 60 0,0
22.04.2017 11:00:00 16,1 4,2 16,7 12,8 13,5 11 6 19 10 E 1024,3 20 60 0,0
22.04.2017 10:00:00 13,1 3,7 9,2 12,9 13,5 9 5 16 9 E 1024,9 20 60 0,0
22.04.2017 09:00:00 6,3 2,9 3,9 13,1 13,5 0 0 2 1 N 1025,6 20 60 0,0
22.04.2017 08:00:00 0,9 0,3 -3,6 13,3 13,5 0 0 3 1 N 1025,9 20 15 0,0
22.04.2017 07:00:00 -0,1 -1,1 -3,4 13,5 13,5 0 0 3 2 N 1025,5 20 0 0,0
22.04.2017 06:00:00 0,8 -0,2 -3,2 13,7 13,5 0 0 4 2 N 1025,3 20 0 0,0
22.04.2017 05:00:00 1,5 0,6 -2,6 13,9 13,5 0 0 3 2 N 1025,5 20 0 0,0
22.04.2017 04:00:00 1,7 0,2 -2,2 14,1 13,5 0 0 4 2 N 1025,4 20 0 0,0
22.04.2017 03:00:00 2,2 0,3 -1,4 14,2 13,5 3 1 4 2 S 1025,7 20 0 0,0
22.04.2017 02:00:00 3,4 1,3 -0,8 14,4 13,6 0 0 5 3 N 1026,0 20 0 0,0
22.04.2017 01:00:00 3,9 0,8 -0,2 14,5 13,5 3 2 4 2 SSW 1026,1 20 0 0,0
22.04.2017 00:00:00 5,0 1,5 0,3 14,6 13,6 0 0 3 2 N 1026,2 20 0 0,0
21.04.2017 23:00:00 6,4 2,1 1,3 14,7 13,6 0 0 3 2 N 1026,3 20 0 0,0
21.04.2017 22:00:00 8,5 2,3 2,6 14,6 13,6 0 0 3 1 N 1025,9 20 0 0,0
21.04.2017 21:00:00 14,1 3,8 7,0 14,5 13,5 0 0 10 5 N 1025,2 20 26 0,0
21.04.2017 20:00:00 19,2 -3,7 20,8 14,3 13,6 5 3 17 9 NE 1024,9 20 60 0,0
21.04.2017 19:00:00 20,4 -4,7 24,2 14,0 13,5 8 4 18 10 E 1025,0 20 60 0,0
21.04.2017 18:00:00 20,6 -4,6 26,3 13,7 13,6 8 4 18 10 E 1025,2 20 60 0,0
21.04.2017 17:00:00 20,7 -3,8 26,9 13,3 13,6 7 4 17 9 ENE 1025,5 20 60 0,0
21.04.2017 16:00:00 20,2 -4,2 26,7 12,9 13,5 4 2 16 8 ENE 1026,1 20 60 0,0
21.04.2017 15:00:00 19,2 -0,8 25,8 12,6 13,6 9 5 20 11 N 1027,0 20 60 0,0
21.04.2017 14:00:00 18,3 -2,1 25,0 12,4 13,6 6 3 18 10 ENE 1027,5 20 60 0,0
21.04.2017 13:00:00 16,8 0,4 22,9 12,2 13,6 8 4 14 7 NNE 1028,1 20 60 0,0
21.04.2017 12:00:00 15,2 1,7 19,4 12,2 13,6 5 3 14 8 SE 1028,5 20 60 0,0
21.04.2017 11:00:00 13,0 -0,3 13,0 12,2 13,6 7 4 14 8 E 1028,3 20 60 0,0
21.04.2017 10:00:00 8,4 1,8 6,2 12,4 13,6 6 3 11 6 N 1028,3 20 60 0,0
21.04.2017 09:00:00 3,1 1,3 0,8 12,5 13,6 0 0 3 2 N 1028,8 20 60 0,0
21.04.2017 08:00:00 -0,3 -0,7 -5,8 12,7 13,6 0 0 3 1 N 1028,8 19 17 0,0
21.04.2017 07:00:00 -1,9 -2,6 -6,3 12,9 13,6 0 0 5 3 N 1028,1 20 0 0,0
21.04.2017 06:00:00 -1,7 -2,4 -6,1 13,1 13,6 2 1 4 2 S 1028,0 20 0 0,0
21.04.2017 05:00:00 -1,6 -2,6 -5,3 13,3 13,6 2 1 3 1 SSW 1028,1 20 0 0,0
21.04.2017 04:00:00 -0,7 -1,8 -4,7 13,5 13,6 2 1 4 2 NNW 1028,0 20 0 0,0
21.04.2017 03:00:00 -0,3 -1,6 -4,8 13,7 13,6 0 0 0 0 N 1028,3 20 0 0,0
21.04.2017 02:00:00 0,5 -1,3 -3,6 13,9 13,6 0 0 3 1 N 1028,6 20 0 0,0
21.04.2017 01:00:00 1,2 -0,9 -3,1 14,1 13,6 0 0 3 2 N 1028,5 20 0 0,0
21.04.2017 00:00:00 1,9 -0,8 -2,1 14,2 13,6 3 1 3 2 SSW 1028,4 20 0 0,0
20.04.2017 23:00:00 3,4 -0,1 -1,8 14,3 13,6 0 0 3 2 N 1028,3 20 0 0,0
20.04.2017 22:00:00 5,3 0,5 -0,3 14,3 13,6 3 2 4 2 SSW 1027,7 20 0 0,0
20.04.2017 21:00:00 10,7 -0,5 2,8 14,2 13,6 0 0 10 5 N 1026,8 20 25 0,0
20.04.2017 20:00:00 15,8 -5,9 17,4 14,0 13,6 6 4 18 10 NE 1026,4 20 60 0,0
20.04.2017 19:00:00 16,6 -5,2 20,6 13,8 13,6 11 6 23 12 NE 1026,2 20 60 0,0
20.04.2017 18:00:00 16,6 -7,9 21,8 13,5 13,6 11 6 28 15 NE 1026,3 20 60 0,0
20.04.2017 17:00:00 16,4 -5,4 22,3 13,3 13,6 12 7 26 14 NE 1026,6 20 60 0,0
20.04.2017 16:00:00 15,9 -6,4 21,8 13,0 13,6 9 5 29 16 NE 1027,4 20 60 0,0
20.04.2017 15:00:00 14,5 -4,3 20,9 12,8 13,6 10 5 29 16 NNE 1028,1 20 60 0,0
20.04.2017 14:00:00 13,6 -3,7 20,4 12,6 13,6 11 6 21 12 NNE 1028,6 20 60 0,0
20.04.2017 13:00:00 12,8 -5,3 17,8 12,5 13,6 9 5 26 14 E 1029,1 20 60 0,0
20.04.2017 12:00:00 11,9 -3,5 16,3 12,6 13,6 11 6 21 11 E 1029,4 20 60 0,0
20.04.2017 11:00:00 9,8 -3,5 12,0 12,7 13,6 12 6 21 11 NE 1029,8 20 60 0,0
20.04.2017 10:00:00 8,1 -2,3 4,2 12,8 13,6 13 7 21 12 NE 1030,0 20 60 0,0
20.04.2017 09:00:00 3,2 -0,1 -0,6 13,0 13,7 4 2 7 4 N 1030,1 17 58 0,0
20.04.2017 08:00:00 -1,4 -2,0 -6,1 13,3 13,6 0 0 3 2 N 1030,1 15 17 0,0
20.04.2017 07:00:00 -1,7 -2,4 -6,2 13,5 13,6 0 0 2 1 N 1029,7 11 0 0,0
20.04.2017 06:00:00 -1,2 -2,0 -5,3 13,7 13,6 0 0 2 1 N 1029,6 12 0 0,0
20.04.2017 05:00:00 -0,3 -1,1 -4,6 13,9 13,6 0 0 0 0 N 1029,1 13 0 0,0
20.04.2017 04:00:00 0,4 -0,9 -3,9 14,1 13,6 0 0 5 3 N 1028,9 16 0 0,0
20.04.2017 03:00:00 1,0 -0,5 -3,4 14,3 13,6 0 0 3 1 N 1028,8 13 0 0,0
20.04.2017 02:00:00 1,9 0,3 -2,7 14,5 13,6 2 1 4 2 N 1029,0 10 0 0,0
20.04.2017 01:00:00 2,2 0,3 -2,1 14,6 13,7 0 0 4 2 N 1028,7 11 0 0,0
20.04.2017 00:00:00 2,6 -0,3 -1,3 14,8 13,7 0 0 2 1 N 1027,9 10 0 0,0
19.04.2017 23:00:00 4,0 0,5 -0,8 14,8 13,7 0 0 3 2 N 1027,3 10 0 0,0
19.04.2017 22:00:00 5,6 1,1 0,3 14,9 13,7 0 0 3 2 N 1026,4 12 0 0,0
19.04.2017 21:00:00 10,3 0,9 3,2 14,8 13,6 0 0 16 9 N 1025,3 18 24 0,0
19.04.2017 20:00:00 15,2 -4,2 17,5 14,7 13,6 4 2 18 10 E 1024,6 20 60 0,0
19.04.2017 19:00:00 15,6 -3,4 20,4 14,6 13,7 11 6 30 16 NNE 1024,5 20 60 0,0
19.04.2017 18:00:00 15,7 -2,8 22,9 14,4 13,6 15 8 30 16 N 1024,6 20 60 0,0
19.04.2017 17:00:00 15,8 -4,8 24,0 14,1 13,7 12 7 27 15 ENE 1024,8 20 60 0,0
19.04.2017 16:00:00 15,4 -4,0 23,8 13,8 13,6 12 7 31 17 NE 1025,4 20 60 0,0
19.04.2017 15:00:00 15,2 -3,7 23,0 13,5 13,6 13 7 32 17 NE 1025,8 20 60 0,0
19.04.2017 14:00:00 14,2 -3,2 22,9 13,3 13,6 14 7 29 16 NE 1026,2 20 60 0,0
19.04.2017 13:00:00 13,4 -3,9 20,5 13,3 13,7 14 7 32 17 ENE 1026,9 20 60 0,0
19.04.2017 12:00:00 12,6 -2,5 18,1 13,2 13,6 13 7 27 15 NE 1027,1 20 60 0,0
19.04.2017 11:00:00 10,9 -1,9 13,4 13,3 13,6 14 8 27 15 NE 1027,4 20 60 0,0
19.04.2017 10:00:00 9,5 0,4 6,7 13,5 13,6 9 5 18 10 ENE 1027,4 20 60 0,0
19.04.2017 09:00:00 5,7 1,2 1,1 13,7 13,6 5 3 7 4 N 1027,6 20 58 0,0
19.04.2017 08:00:00 0,7 0,3 -3,5 13,8 13,6 0 0 3 1 N 1027,6 20 16 0,0
19.04.2017 07:00:00 0,3 -0,4 -3,4 14,1 13,6 0 0 3 1 N 1026,8 20 0 0,0
19.04.2017 06:00:00 0,6 -0,3 -2,7 14,2 13,6 0 0 5 3 N 1026,5 20 0 0,0
19.04.2017 05:00:00 1,6 0,6 -1,8 14,4 13,6 0 0 3 1 N 1026,3 20 0 0,0
19.04.2017 04:00:00 2,7 1,5 -1,3 14,6 13,6 0 0 0 0 N 1026,0 20 0 0,0
19.04.2017 03:00:00 3,5 1,5 0,0 14,8 13,6 0 0 3 2 N 1026,1 20 0 0,0
19.04.2017 02:00:00 4,2 1,9 0,5 15,0 13,7 0 0 3 2 N 1026,1 20 0 0,0
19.04.2017 01:00:00 4,3 1,2 -0,3 15,1 13,7 0 0 0 0 N 1025,9 20 0 0,0
19.04.2017 00:00:00 5,3 1,0 0,4 15,2 13,6 0 0 4 2 N 1025,2 20 0 0,0
18.04.2017 23:00:00 7,9 1,3 0,9 15,3 13,7 4 2 5 3 N 1024,5 20 0 0,0
18.04.2017 22:00:00 10,4 -0,2 2,9 15,4 13,6 3 1 12 7 NNE 1023,5 20 0 0,0
18.04.2017 21:00:00 11,9 0,6 6,0 15,4 13,7 6 4 19 11 NNW 1022,6 20 22 0,0
18.04.2017 20:00:00 15,4 0,4 16,2 15,3 13,6 12 6 21 11 N 1021,8 20 60 0,0
18.04.2017 19:00:00 17,0 1,8 21,2 15,1 13,6 14 8 27 14 N 1021,5 20 60 0,0
18.04.2017 18:00:00 17,6 1,5 24,4 14,9 13,6 14 8 32 18 N 1021,3 20 60 0,0
18.04.2017 17:00:00 17,7 2,4 24,7 14,6 13,6 15 8 46 25 N 1021,3 20 60 0,0
18.04.2017 16:00:00 17,7 3,9 24,1 14,4 13,6 13 7 28 15 NNW 1021,5 20 58 0,0
18.04.2017 15:00:00 17,2 5,8 20,3 14,1 13,6 15 8 30 16 NNW 1021,8 20 52 0,0
18.04.2017 14:00:00 16,5 6,3 18,5 13,9 13,6 14 8 31 17 N 1022,1 20 30 0,0
18.04.2017 13:00:00 16,3 4,6 20,8 13,8 13,6 11 6 31 17 NNW 1022,6 20 53 0,0
18.04.2017 12:00:00 15,5 4,2 20,6 13,8 13,6 16 9 27 15 N 1022,8 20 60 0,0
18.04.2017 11:00:00 15,0 4,4 17,5 13,9 13,6 11 6 23 12 NNE 1022,6 20 60 0,0
18.04.2017 10:00:00 12,7 7,8 9,9 14,0 13,7 4 2 8 4 N 1022,6 19 58 0,0
18.04.2017 09:00:00 8,2 6,5 5,2 14,2 13,6 8 4 13 7 S 1022,7 20 57 0,0
18.04.2017 08:00:00 5,1 4,7 -0,1 14,3 13,7 8 4 10 6 SSW 1022,5 20 15 0,0
18.04.2017 07:00:00 3,4 2,8 -0,1 14,5 13,7 4 2 6 3 SSW 1022,2 20 0 0,0
18.04.2017 06:00:00 4,0 3,4 0,2 14,7 13,7 0 0 5 3 N 1021,7 20 0 0,0
18.04.2017 05:00:00 4,6 4,0 0,7 14,8 13,7 0 0 5 3 N 1021,5 19 0 0,0
18.04.2017 04:00:00 5,2 4,6 0,9 15,0 13,6 0 0 5 3 N 1021,1 20 0 0,0
18.04.2017 03:00:00 4,8 3,9 1,7 15,1 13,6 3 2 6 3 SSW 1021,3 20 0 0,0
18.04.2017 02:00:00 6,4 5,5 2,4 15,3 13,7 0 0 6 3 N 1021,5 20 0 0,0
18.04.2017 01:00:00 6,9 5,5 3,6 15,4 13,6 3 2 9 5 SSW 1021,3 20 0 0,0
18.04.2017 00:00:00 7,8 6,1 3,9 15,5 13,6 3 1 8 4 S 1021,3 20 0 0,0
17.04.2017 23:00:00 8,7 6,7 4,4 15,5 13,6 0 0 3 2 N 1021,2 20 0 0,0

tt = Température de l'air
td = dewpoint
tt 5cm = Température de l'air 5cm
tt -20cm = Température de l'air -20cm
tt -100cm = Température de l'air -100cm
ff = Vitesse du vent
fx = gusts
dd = Direction du vent
ppp = reduced air pressure
vv = visibility
sd = Ensoleillement
rr = Quantités de précipitations

stations d'obs. à proximité